^^

..:: Storico WU ::..




Lo storico viene creato da WUnderground con i dati che la stazione Meteomincio invia al loro server. L' aggiornamento viene fatto ogni 5 minuti circa, tuttavia possono esserci intervalli pił ampi a causa di errori, interruzioni di servizio o problemi nell' invio tramite FTP.


Storico stazione MeteoMincio
Giorno Sommario per Giugno 05, 2022 Unità:  Inglese    Metrico   Entrambi
Giorno Settimana Mese Anno
  Max: Min: Media:
Temperatura: 89.6 °F 69.8 °F 78.6 °F
Dew Point: 73.4 °F 60.8 °F 68 °F
Umidità: 91% 46% 72%
Velocità vento: 12.4mph 0.6mph 5.2mph
Raffica: 19.9mph - -
Direzione- - ESE
Pressione: 30 in 29.8 in -
Precipitazioni: 0 in    
 
 
Tabulato Dati per Giugno 05, 2022
Ora Temperatura Dew Point Pressione Direzione Velocità vento Raffica Umidità Intensità pioggia (oraria) Info solare Situazione
00:04 73.4 °F 68 °F 30 in East 1.2 mph 2.5 mph 84% 0 in 0.00 W/m2 unknown
00:09 73.4 °F 68 °F 30 in East 1.2 mph 2.5 mph 84% 0 in 0.00 W/m2 unknown
00:14 73.4 °F 68 °F 30 in East 1.2 mph 2.5 mph 84% 0 in 0.00 W/m2 unknown
00:19 73.4 °F 68 °F 30 in East 1.2 mph 1.9 mph 85% 0 in 0.00 W/m2 unknown
00:24 73.4 °F 68 °F 30 in East 0.6 mph 2.5 mph 84% 0 in 0.00 W/m2 unknown
00:29 73.4 °F 68 °F 30 in East 1.2 mph 2.5 mph 85% 0 in 0.00 W/m2 unknown
00:34 73.4 °F 68 °F 30 in East 1.9 mph 3.7 mph 85% 0 in 0.00 W/m2 unknown
00:39 71.6 °F 68 °F 30 in NE 1.2 mph 3.7 mph 86% 0 in 0.00 W/m2 unknown
00:44 71.6 °F 68 °F 30 in NNE 1.9 mph 3.7 mph 86% 0 in 0.00 W/m2 unknown
00:49 73.4 °F 68 °F 30 in NNE 1.2 mph 3.1 mph 86% 0 in 0.00 W/m2 unknown
00:54 73.4 °F 68 °F 30 in NNE 1.2 mph 2.5 mph 85% 0 in 0.00 W/m2 unknown
00:59 73.4 °F 68 °F 30 in NNE 1.2 mph 2.5 mph 84% 0 in 0.00 W/m2 unknown
01:04 73.4 °F 68 °F 30 in NNE 1.2 mph 2.5 mph 84% 0 in 0.00 W/m2 unknown
01:09 73.4 °F 68 °F 30 in NNE 0.6 mph 1.2 mph 84% 0 in 0.00 W/m2 unknown
01:14 73.4 °F 68 °F 30 in NNE 0.6 mph 1.9 mph 84% 0 in 0.00 W/m2 unknown
01:19 73.4 °F 68 °F 30 in NNE 0.6 mph 2.5 mph 84% 0 in 0.00 W/m2 unknown
01:24 73.4 °F 68 °F 30 in NE 1.9 mph 3.7 mph 84% 0 in 0.00 W/m2 unknown
01:29 73.4 °F 68 °F 30 in ENE 1.9 mph 3.7 mph 84% 0 in 0.00 W/m2 unknown
01:34 73.4 °F 68 °F 30 in ENE 1.2 mph 3.1 mph 84% 0 in 0.00 W/m2 unknown
01:39 73.4 °F 68 °F 30 in NE 1.2 mph 2.5 mph 85% 0 in 0.00 W/m2 unknown
01:44 71.6 °F 68 °F 30 in ENE 1.2 mph 2.5 mph 86% 0 in 0.00 W/m2 unknown
01:49 71.6 °F 68 °F 30 in East 1.9 mph 5 mph 86% 0 in 0.00 W/m2 unknown
01:54 71.6 °F 66.2 °F 30 in ENE 3.1 mph 5 mph 87% 0 in 0.00 W/m2 unknown
01:59 71.6 °F 66.2 °F 30 in ENE 3.1 mph 5 mph 88% 0 in 0.00 W/m2 unknown
02:04 69.8 °F 66.2 °F 30 in ENE 1.9 mph 3.7 mph 88% 0 in 0.00 W/m2 unknown
02:09 71.6 °F 68 °F 30 in ENE 1.2 mph 3.1 mph 88% 0 in 0.00 W/m2 unknown
02:14 71.6 °F 68 °F 30 in ENE 1.2 mph 2.5 mph 88% 0 in 0.00 W/m2 unknown
02:19 71.6 °F 68 °F 30 in East 1.2 mph 3.7 mph 88% 0 in 0.00 W/m2 unknown
02:24 71.6 °F 68 °F 30 in East 2.5 mph 3.7 mph 88% 0 in 0.00 W/m2 unknown
02:29 71.6 °F 68 °F 30 in East 3.1 mph 5 mph 88% 0 in 0.00 W/m2 unknown
02:34 71.6 °F 68 °F 30 in East 3.1 mph 5 mph 88% 0 in 0.00 W/m2 unknown
02:39 71.6 °F 68 °F 30 in East 2.5 mph 5 mph 88% 0 in 0.00 W/m2 unknown
02:44 71.6 °F 68 °F 30 in East 3.1 mph 5 mph 88% 0 in 0.00 W/m2 unknown
02:49 71.6 °F 68 °F 30 in East 3.1 mph 5 mph 88% 0 in 0.00 W/m2 unknown
02:54 71.6 °F 68 °F 30 in East 2.5 mph 5 mph 88% 0 in 0.00 W/m2 unknown
02:59 71.6 °F 66.2 °F 30 in East 2.5 mph 5 mph 87% 0 in 0.00 W/m2 unknown
03:04 71.6 °F 68 °F 30 in East 3.1 mph 5 mph 88% 0 in 0.00 W/m2 unknown
03:09 71.6 °F 68 °F 30 in ENE 3.1 mph 5 mph 87% 0 in 0.00 W/m2 unknown
03:14 71.6 °F 68 °F 30 in ENE 2.5 mph 5 mph 87% 0 in 0.00 W/m2 unknown
03:19 71.6 °F 68 °F 30 in NE 2.5 mph 3.7 mph 86% 0 in 0.00 W/m2 unknown
03:23 71.6 °F 66.2 °F 30 in ENE 2.5 mph 3.7 mph 86% 0 in 0.00 W/m2 unknown
03:29 71.6 °F 66.2 °F 30 in ENE 1.9 mph 3.7 mph 86% 0 in 0.00 W/m2 unknown
03:34 71.6 °F 66.2 °F 30 in ENE 1.9 mph 3.7 mph 87% 0 in 0.00 W/m2 unknown
03:38 71.6 °F 66.2 °F 30 in ENE 1.9 mph 3.7 mph 87% 0 in 0.00 W/m2 unknown
03:44 71.6 °F 66.2 °F 30 in ENE 2.5 mph 3.7 mph 87% 0 in 0.00 W/m2 unknown
03:49 71.6 °F 66.2 °F 30 in ENE 3.1 mph 5 mph 87% 0 in 0.00 W/m2 unknown
03:54 71.6 °F 66.2 °F 30 in ENE 3.1 mph 5 mph 87% 0 in 0.00 W/m2 unknown
03:59 71.6 °F 66.2 °F 30 in ENE 3.1 mph 5 mph 87% 0 in 0.00 W/m2 unknown
04:03 69.8 °F 66.2 °F 30 in ENE 1.9 mph 5 mph 88% 0 in 0.00 W/m2 unknown
04:08 69.8 °F 66.2 °F 30 in ENE 1.9 mph 3.7 mph 88% 0 in 0.00 W/m2 unknown
04:13 69.8 °F 66.2 °F 30 in East 1.2 mph 2.5 mph 88% 0 in 0.00 W/m2 unknown
04:18 69.8 °F 66.2 °F 30 in ENE 1.2 mph 2.5 mph 88% 0 in 0.00 W/m2 unknown
04:23 69.8 °F 66.2 °F 30 in ENE 1.9 mph 3.1 mph 88% 0 in 0.00 W/m2 unknown
04:28 69.8 °F 66.2 °F 30 in NE 2.5 mph 3.7 mph 89% 0 in 0.00 W/m2 unknown
04:33 69.8 °F 66.2 °F 30 in ENE 3.1 mph 3.7 mph 89% 0 in 0.00 W/m2 unknown
04:38 69.8 °F 66.2 °F 30 in ENE 3.1 mph 5 mph 89% 0 in 0.00 W/m2 unknown
04:42 69.8 °F 66.2 °F 30 in East 2.5 mph 4.3 mph 89% 0 in 0.00 W/m2 unknown
04:48 69.8 °F 66.2 °F 30 in East 1.9 mph 3.7 mph 89% 0 in 0.00 W/m2 unknown
04:53 69.8 °F 66.2 °F 30 in ENE 2.5 mph 3.7 mph 89% 0 in 0.00 W/m2 unknown
04:58 69.8 °F 66.2 °F 30 in ENE 1.9 mph 5 mph 89% 0 in 0.00 W/m2 unknown
05:03 69.8 °F 66.2 °F 30 in ENE 2.5 mph 3.7 mph 89% 0 in 0.00 W/m2 unknown
05:09 69.8 °F 66.2 °F 30 in East 1.9 mph 3.7 mph 90% 0 in 0.00 W/m2 unknown
05:14 69.8 °F 66.2 °F 30 in ENE 1.9 mph 3.7 mph 90% 0 in 0.00 W/m2 unknown
05:19 69.8 °F 66.2 °F 30 in ENE 1.9 mph 3.7 mph 90% 0 in 0.00 W/m2 unknown
05:24 69.8 °F 66.2 °F 30 in ENE 1.9 mph 3.7 mph 90% 0 in 0.00 W/m2 unknown
05:27 69.8 °F 66.2 °F 30 in ENE 2.5 mph 3.7 mph 90% 0 in 0.00 W/m2 unknown
05:34 69.8 °F 66.2 °F 30 in ENE 3.7 mph 6.8 mph 91% 0 in 0.00 W/m2 unknown
05:39 69.8 °F 66.2 °F 30 in ENE 4.3 mph 6.8 mph 91% 0 in 5.00 W/m2 unknown
05:44 69.8 °F 66.2 °F 30 in East 3.1 mph 6.8 mph 91% 0 in 5.00 W/m2 unknown
05:49 69.8 °F 66.2 °F 30 in ENE 3.1 mph 6.8 mph 91% 0 in 7.00 W/m2 unknown
05:54 69.8 °F 66.2 °F 30 in ENE 3.1 mph 3.7 mph 91% 0 in 14.00 W/m2 unknown
05:59 69.8 °F 66.2 °F 30 in ENE 2.5 mph 3.7 mph 91% 0 in 28.00 W/m2 unknown
06:00 69.8 °F 66.2 °F 30 in ENE 1.9 mph 3.1 mph 91% 0 in 28.00 W/m2 unknown
06:09 69.8 °F 66.2 °F 30 in ENE 1.9 mph 3.7 mph 91% 0 in 32.00 W/m2 unknown
06:13 69.8 °F 66.2 °F 30 in ENE 1.9 mph 3.7 mph 91% 0 in 28.00 W/m2 unknown
06:19 69.8 °F 66.2 °F 30 in ENE 2.5 mph 3.7 mph 91% 0 in 28.00 W/m2 unknown
06:24 69.8 °F 66.2 °F 30 in ENE 2.5 mph 3.7 mph 90% 0 in 26.00 W/m2 unknown
06:29 69.8 °F 66.2 °F 30 in East 1.9 mph 3.7 mph 89% 0 in 28.00 W/m2 unknown
06:34 69.8 °F 66.2 °F 30 in ENE 2.5 mph 3.7 mph 89% 0 in 40.00 W/m2 unknown
06:39 69.8 °F 66.2 °F 30 in ENE 2.5 mph 3.7 mph 89% 0 in 53.00 W/m2 unknown
06:44 69.8 °F 66.2 °F 30 in ENE 2.5 mph 3.7 mph 89% 0 in 65.00 W/m2 unknown
06:49 69.8 °F 66.2 °F 30 in ENE 1.9 mph 3.7 mph 89% 0 in 76.00 W/m2 unknown
06:54 69.8 °F 68 °F 30 in East 1.9 mph 5 mph 89% 0 in 84.00 W/m2 unknown
06:59 71.6 °F 68 °F 30 in ENE 3.1 mph 5 mph 89% 0 in 93.00 W/m2 unknown
07:04 71.6 °F 68 °F 30 in ENE 2.5 mph 5 mph 88% 0 in 105.00 W/m2 unknown
07:09 71.6 °F 68 °F 30 in East 3.1 mph 5 mph 88% 0 in 116.00 W/m2 unknown
07:14 71.6 °F 68 °F 30 in East 2.5 mph 5 mph 88% 0 in 127.00 W/m2 unknown
07:18 71.6 °F 68 °F 30 in East 2.5 mph 5 mph 88% 0 in 137.00 W/m2 unknown
07:23 73.4 °F 68 °F 30 in ENE 3.1 mph 6.8 mph 87% 0 in 148.00 W/m2 unknown
07:29 73.4 °F 68 °F 30 in ENE 3.1 mph 6.8 mph 87% 0 in 163.00 W/m2 unknown
07:34 73.4 °F 68 °F 30 in ENE 3.7 mph 6.8 mph 87% 0 in 188.00 W/m2 unknown
07:39 73.4 °F 68 °F 30 in ENE 4.3 mph 6.8 mph 86% 0 in 188.00 W/m2 unknown
07:44 73.4 °F 68 °F 30 in ENE 4.3 mph 6.2 mph 85% 0 in 190.00 W/m2 unknown
07:49 73.4 °F 69.8 °F 30 in ENE 5.6 mph 11.2 mph 85% 0 in 206.00 W/m2 unknown
07:54 75.2 °F 69.8 °F 30 in ENE 7.5 mph 11.2 mph 84% 0 in 220.00 W/m2 unknown
07:59 75.2 °F 69.8 °F 30 in East 8.1 mph 10.6 mph 83% 0 in 230.00 W/m2 unknown
08:04 75.2 °F 69.8 °F 30 in ENE 8.1 mph 10.6 mph 83% 0 in 239.00 W/m2 unknown
08:09 75.2 °F 69.8 °F 30 in ENE 6.8 mph 13 mph 83% 0 in 253.00 W/m2 unknown
08:14 75.2 °F 69.8 °F 30 in ENE 8.7 mph 13 mph 82% 0 in 265.00 W/m2 unknown
08:19 77 °F 69.8 °F 30 in ENE 8.1 mph 11.8 mph 81% 0 in 283.00 W/m2 unknown
08:24 77 °F 69.8 °F 30 in ENE 6.8 mph 11.8 mph 81% 0 in 297.00 W/m2 unknown
08:29 77 °F 69.8 °F 30 in ENE 8.1 mph 13 mph 80% 0 in 316.00 W/m2 unknown
08:34 77 °F 69.8 °F 30 in ENE 8.7 mph 19.3 mph 79% 0 in 374.00 W/m2 unknown
08:39 77 °F 69.8 °F 30 in ENE 10.6 mph 19.3 mph 78% 0 in 374.00 W/m2 unknown
08:44 77 °F 69.8 °F 30 in ENE 10.6 mph 17.4 mph 77% 0 in 371.00 W/m2 unknown
08:49 78.8 °F 69.8 °F 30 in ENE 9.9 mph 16.8 mph 76% 0 in 371.00 W/m2 unknown
08:54 78.8 °F 69.8 °F 30 in ENE 11.8 mph 19.9 mph 76% 0 in 383.00 W/m2 unknown
08:59 78.8 °F 69.8 °F 30 in ENE 12.4 mph 19.9 mph 74% 0 in 397.00 W/m2 unknown
09:04 78.8 °F 69.8 °F 30 in East 11.8 mph 18 mph 74% 0 in 410.00 W/m2 unknown
09:09 78.8 °F 69.8 °F 30 in East 8.1 mph 11.8 mph 74% 0 in 420.00 W/m2 unknown
09:14 78.8 °F 69.8 °F 30 in ENE 8.7 mph 16.2 mph 74% 0 in 434.00 W/m2 unknown
09:19 78.8 °F 69.8 °F 30 in ENE 10.6 mph 16.2 mph 73% 0 in 450.00 W/m2 unknown
09:24 78.8 °F 69.8 °F 29.9 in ENE 11.2 mph 14.3 mph 72% 0 in 462.00 W/m2 unknown
09:28 80.6 °F 69.8 °F 29.9 in East 9.9 mph 14.3 mph 72% 0 in 469.00 W/m2 unknown
09:34 80.6 °F 69.8 °F 29.9 in East 9.9 mph 14.3 mph 72% 0 in 490.00 W/m2 unknown
09:39 80.6 °F 69.8 °F 29.9 in ENE 10.6 mph 14.3 mph 72% 0 in 506.00 W/m2 unknown
09:44 80.6 °F 71.6 °F 29.9 in East 9.9 mph 14.3 mph 72% 0 in 515.00 W/m2 unknown
09:49 80.6 °F 71.6 °F 29.9 in ENE 9.3 mph 14.3 mph 72% 0 in 527.00 W/m2 unknown
09:54 80.6 °F 71.6 °F 29.9 in East 8.7 mph 14.3 mph 72% 0 in 534.00 W/m2 unknown
09:59 80.6 °F 69.8 °F 29.9 in ENE 9.3 mph 14.9 mph 71% 0 in 550.00 W/m2 unknown
10:04 80.6 °F 71.6 °F 29.9 in East 9.3 mph 14.9 mph 72% 0 in 563.00 W/m2 unknown
10:09 82.4 °F 71.6 °F 29.9 in East 8.1 mph 13 mph 72% 0 in 571.00 W/m2 unknown
10:14 82.4 °F 71.6 °F 29.9 in ESE 6.8 mph 13 mph 72% 0 in 589.00 W/m2 unknown
10:19 82.4 °F 71.6 °F 29.9 in ENE 8.7 mph 13 mph 71% 0 in 610.00 W/m2 unknown
10:24 82.4 °F 71.6 °F 29.9 in East 9.3 mph 13 mph 71% 0 in 647.00 W/m2 unknown
10:29 82.4 °F 71.6 °F 29.9 in East 8.7 mph 13 mph 72% 0 in 671.00 W/m2 unknown
10:34 82.4 °F 71.6 °F 29.9 in East 8.1 mph 13 mph 71% 0 in 610.00 W/m2 unknown
10:39 82.4 °F 71.6 °F 29.9 in ESE 8.7 mph 13 mph 72% 0 in 608.00 W/m2 unknown
10:44 82.4 °F 71.6 °F 29.9 in ESE 8.7 mph 13 mph 72% 0 in 520.00 W/m2 unknown
10:49 82.4 °F 71.6 °F 29.9 in ESE 8.7 mph 14.9 mph 73% 0 in 650.00 W/m2 unknown
10:54 82.4 °F 71.6 °F 29.9 in ESE 9.3 mph 14.9 mph 72% 0 in 650.00 W/m2 unknown
10:59 82.4 °F 71.6 °F 29.9 in East 9.9 mph 14.9 mph 72% 0 in 587.00 W/m2 unknown
11:04 82.4 °F 71.6 °F 29.9 in East 8.7 mph 14.9 mph 72% 0 in 622.00 W/m2 unknown
11:09 82.4 °F 71.6 °F 29.9 in ESE 8.1 mph 14.3 mph 71% 0 in 508.00 W/m2 unknown
11:14 82.4 °F 71.6 °F 29.9 in ESE 8.1 mph 11.8 mph 71% 0 in 406.00 W/m2 unknown
11:19 82.4 °F 71.6 °F 29.9 in ESE 8.1 mph 11.8 mph 71% 0 in 468.00 W/m2 unknown
11:24 82.4 °F 71.6 °F 29.9 in East 6.8 mph 11.8 mph 70% 0 in 468.00 W/m2 unknown
11:29 82.4 °F 71.6 °F 29.9 in East 6.2 mph 9.3 mph 71% 0 in 399.00 W/m2 unknown
11:34 82.4 °F 71.6 °F 29.9 in East 8.7 mph 10.6 mph 70% 0 in 399.00 W/m2 unknown
11:39 82.4 °F 71.6 °F 29.9 in East 8.1 mph 11.2 mph 70% 0 in 803.00 W/m2 unknown
11:44 82.4 °F 71.6 °F 29.9 in ESE 8.1 mph 11.8 mph 69% 0 in 803.00 W/m2 unknown
11:49 84.2 °F 71.6 °F 29.9 in ESE 8.7 mph 13 mph 68% 0 in 802.00 W/m2 unknown
11:54 84.2 °F 71.6 °F 29.9 in ESE 8.1 mph 13 mph 68% 0 in 814.00 W/m2 unknown
11:59 84.2 °F 71.6 °F 29.9 in ENE 8.1 mph 11.8 mph 67% 0 in 856.00 W/m2 unknown
12:04 84.2 °F 71.6 °F 29.9 in SE 6.8 mph 11.8 mph 66% 0 in 849.00 W/m2 unknown
12:09 86 °F 71.6 °F 29.9 in ESE 6.2 mph 10.6 mph 66% 0 in 856.00 W/m2 unknown
12:14 86 °F 71.6 °F 29.9 in ESE 6.8 mph 11.8 mph 65% 0 in 838.00 W/m2 unknown
12:19 86 °F 71.6 °F 29.9 in ESE 6.8 mph 11.8 mph 66% 0 in 828.00 W/m2 unknown
12:24 86 °F 71.6 °F 29.9 in ESE 8.7 mph 11.8 mph 65% 0 in 835.00 W/m2 unknown
12:29 86 °F 71.6 °F 29.9 in SE 8.7 mph 11.8 mph 64% 0 in 853.00 W/m2 unknown
12:34 86 °F 71.6 °F 29.9 in SE 8.1 mph 11.8 mph 63% 0 in 928.00 W/m2 unknown
12:39 86 °F 71.6 °F 29.9 in SE 8.7 mph 13 mph 63% 0 in 928.00 W/m2 unknown
12:44 86 °F 71.6 °F 29.9 in ESE 8.7 mph 13 mph 64% 0 in 891.00 W/m2 unknown
12:49 86 °F 71.6 °F 29.9 in East 8.1 mph 13 mph 64% 0 in 865.00 W/m2 unknown
12:54 86 °F 71.6 °F 29.9 in East 7.5 mph 11.8 mph 63% 0 in 872.00 W/m2 unknown
12:59 86 °F 71.6 °F 29.9 in ESE 7.5 mph 11.8 mph 64% 0 in 914.00 W/m2 unknown
13:04 86 °F 71.6 °F 29.9 in ESE 6.2 mph 11.8 mph 63% 0 in 891.00 W/m2 unknown
13:09 86 °F 71.6 °F 29.9 in ESE 6.2 mph 11.2 mph 62% 0 in 891.00 W/m2 unknown
13:13 86 °F 71.6 °F 29.9 in SE 6.8 mph 11.8 mph 62% 0 in 758.00 W/m2 unknown
13:19 86 °F 71.6 °F 29.9 in ESE 6.8 mph 11.8 mph 62% 0 in 629.00 W/m2 unknown
13:24 86 °F 71.6 °F 29.9 in ESE 6.8 mph 11.8 mph 63% 0 in 863.00 W/m2 unknown
13:29 86 °F 73.4 °F 29.9 in East 7.5 mph 11.8 mph 64% 0 in 912.00 W/m2 unknown
13:33 87.8 °F 73.4 °F 29.9 in East 6.8 mph 11.8 mph 63% 0 in 898.00 W/m2 unknown
13:39 87.8 °F 71.6 °F 29.9 in East 6.2 mph 8.7 mph 62% 0 in 882.00 W/m2 unknown
13:44 87.8 °F 71.6 °F 29.9 in East 6.8 mph 9.3 mph 62% 0 in 851.00 W/m2 unknown
13:49 87.8 °F 73.4 °F 29.9 in ENE 6.8 mph 10.6 mph 61% 0 in 884.00 W/m2 unknown
13:54 87.8 °F 73.4 °F 29.9 in SE 6.2 mph 11.8 mph 61% 0 in 893.00 W/m2 unknown
13:59 87.8 °F 73.4 °F 29.9 in South 6.2 mph 11.8 mph 61% 0 in 895.00 W/m2 unknown
14:04 87.8 °F 71.6 °F 29.9 in East 5 mph 11.8 mph 59% 0 in 865.00 W/m2 unknown
14:09 87.8 °F 71.6 °F 29.9 in ESE 4.3 mph 8.1 mph 58% 0 in 791.00 W/m2 unknown
14:14 89.6 °F 71.6 °F 29.9 in SE 5.6 mph 8.1 mph 59% 0 in 846.00 W/m2 unknown
14:19 89.6 °F 71.6 °F 29.9 in SE 5 mph 6.8 mph 58% 0 in 817.00 W/m2 unknown
14:24 89.6 °F 71.6 °F 29.9 in SE 4.3 mph 8.7 mph 58% 0 in 786.00 W/m2 unknown
14:29 89.6 °F 71.6 °F 29.9 in South 5.6 mph 9.3 mph 55% 0 in 668.00 W/m2 unknown
14:34 89.6 °F 69.8 °F 29.9 in SSW 5 mph 9.3 mph 54% 0 in 613.00 W/m2 unknown
14:39 87.8 °F 69.8 °F 29.9 in South 5 mph 10.6 mph 54% 0 in 613.00 W/m2 unknown
14:44 87.8 °F 69.8 °F 29.9 in South 5 mph 10.6 mph 54% 0 in 682.00 W/m2 unknown
14:49 87.8 °F 69.8 °F 29.9 in SSW 6.2 mph 10.6 mph 54% 0 in 631.00 W/m2 unknown
14:54 87.8 °F 71.6 °F 29.9 in SW 5.6 mph 10.6 mph 56% 0 in 538.00 W/m2 unknown
14:59 87.8 °F 69.8 °F 29.9 in South 6.8 mph 9.3 mph 54% 0 in 475.00 W/m2 unknown
15:04 87.8 °F 69.8 °F 29.9 in South 6.2 mph 9.3 mph 55% 0 in 773.00 W/m2 unknown
15:09 89.6 °F 71.6 °F 29.9 in SSE 6.2 mph 8.7 mph 56% 0 in 816.00 W/m2 unknown
15:14 89.6 °F 69.8 °F 29.9 in SSW 5 mph 8.1 mph 55% 0 in 747.00 W/m2 unknown
15:19 89.6 °F 69.8 °F 29.9 in South 6.8 mph 8.1 mph 54% 0 in 840.00 W/m2 unknown
15:24 89.6 °F 69.8 °F 29.9 in SSW 7.5 mph 11.2 mph 54% 0 in 745.00 W/m2 unknown
15:29 89.6 °F 69.8 °F 29.9 in SSE 6.8 mph 13 mph 54% 0 in 745.00 W/m2 unknown
15:34 89.6 °F 69.8 °F 29.9 in SSW 6.8 mph 13 mph 56% 0 in 710.00 W/m2 unknown
15:39 87.8 °F 71.6 °F 29.9 in SSW 6.2 mph 11.8 mph 57% 0 in 772.00 W/m2 unknown
15:44 89.6 °F 71.6 °F 29.9 in SSE 6.2 mph 11.8 mph 57% 0 in 814.00 W/m2 unknown
15:49 89.6 °F 71.6 °F 29.9 in South 6.2 mph 11.8 mph 55% 0 in 828.00 W/m2 unknown
15:54 89.6 °F 69.8 °F 29.9 in SSW 5 mph 11.8 mph 55% 0 in 833.00 W/m2 unknown
15:59 89.6 °F 69.8 °F 29.8 in SE 5 mph 8.1 mph 54% 0 in 775.00 W/m2 unknown
16:04 89.6 °F 71.6 °F 29.8 in SE 5.6 mph 9.3 mph 55% 0 in 700.00 W/m2 unknown
16:09 89.6 °F 71.6 °F 29.8 in SSE 6.2 mph 9.3 mph 55% 0 in 700.00 W/m2 unknown
16:14 89.6 °F 71.6 °F 29.8 in SSE 6.2 mph 8.7 mph 55% 0 in 800.00 W/m2 unknown
16:19 89.6 °F 71.6 °F 29.8 in South 3.1 mph 8.1 mph 55% 0 in 800.00 W/m2 unknown
16:24 89.6 °F 69.8 °F 29.8 in ESE 5 mph 8.1 mph 55% 0 in 751.00 W/m2 unknown
16:29 89.6 °F 71.6 °F 29.8 in ESE 5.6 mph 8.7 mph 57% 0 in 721.00 W/m2 unknown
16:34 89.6 °F 71.6 °F 29.8 in ESE 6.2 mph 9.3 mph 57% 0 in 411.00 W/m2 unknown
16:39 87.8 °F 69.8 °F 29.8 in South 6.2 mph 9.3 mph 56% 0 in 411.00 W/m2 unknown
16:44 87.8 °F 69.8 °F 29.8 in SSW 5 mph 8.1 mph 54% 0 in 185.00 W/m2 unknown
16:49 87.8 °F 69.8 °F 29.8 in SE 5 mph 9.3 mph 55% 0 in 663.00 W/m2 unknown
16:54 89.6 °F 69.8 °F 29.9 in SSE 3.7 mph 9.3 mph 55% 0 in 670.00 W/m2 unknown
16:59 89.6 °F 69.8 °F 29.9 in South 5.6 mph 8.7 mph 54% 0 in 628.00 W/m2 unknown
17:04 89.6 °F 69.8 °F 29.9 in SSE 5.6 mph 8.1 mph 54% 0 in 603.00 W/m2 unknown
17:09 89.6 °F 69.8 °F 29.9 in SSE 3.1 mph 6.8 mph 54% 0 in 144.00 W/m2 unknown
17:14 89.6 °F 69.8 °F 29.9 in South 3.1 mph 6.8 mph 54% 0 in 171.00 W/m2 unknown
17:19 89.6 °F 69.8 °F 29.9 in SSW 1.9 mph 6.8 mph 55% 0 in 527.00 W/m2 unknown
17:24 89.6 °F 69.8 °F 29.9 in SSE 3.1 mph 6.8 mph 55% 0 in 508.00 W/m2 unknown
17:29 89.6 °F 71.6 °F 29.9 in SE 3.1 mph 6.2 mph 55% 0 in 499.00 W/m2 unknown
17:34 89.6 °F 71.6 °F 29.8 in ESE 3.7 mph 6.2 mph 55% 0 in 487.00 W/m2 unknown
17:39 89.6 °F 69.8 °F 29.8 in SE 3.1 mph 4.3 mph 53% 0 in 473.00 W/m2 unknown
17:44 89.6 °F 68 °F 29.8 in SW 6.8 mph 10.6 mph 48% 0 in 452.00 W/m2 unknown
17:49 89.6 °F 68 °F 29.8 in SW 7.5 mph 10.6 mph 49% 0 in 441.00 W/m2 unknown
17:54 89.6 °F 68 °F 29.8 in SW 6.8 mph 10.6 mph 48% 0 in 427.00 W/m2 unknown
17:59 89.6 °F 68 °F 29.8 in WSW 6.2 mph 10.6 mph 48% 0 in 415.00 W/m2 unknown
18:04 89.6 °F 68 °F 29.8 in SW 6.2 mph 10.6 mph 48% 0 in 399.00 W/m2 unknown
18:09 89.6 °F 66.2 °F 29.8 in SSW 6.8 mph 13 mph 47% 0 in 383.00 W/m2 unknown
18:14 89.6 °F 66.2 °F 29.8 in SSW 8.7 mph 14.9 mph 46% 0 in 371.00 W/m2 unknown
18:19 89.6 °F 66.2 °F 29.8 in SSW 10.6 mph 14.9 mph 46% 0 in 360.00 W/m2 unknown
18:24 89.6 °F 66.2 °F 29.8 in SW 10.6 mph 14.9 mph 46% 0 in 341.00 W/m2 unknown
18:29 89.6 °F 64.4 °F 29.8 in SSW 10.6 mph 16.2 mph 47% 0 in 42.00 W/m2 unknown
18:34 87.8 °F 64.4 °F 29.8 in South 11.2 mph 17.4 mph 48% 0 in 42.00 W/m2 unknown
18:39 87.8 °F 66.2 °F 29.8 in SW 9.9 mph 17.4 mph 49% 0 in 44.00 W/m2 unknown
18:43 86 °F 66.2 °F 29.8 in SW 8.7 mph 16.8 mph 50% 0 in 47.00 W/m2 unknown
18:49 86 °F 66.2 °F 29.8 in SW 6.8 mph 9.9 mph 51% 0 in 53.00 W/m2 unknown
18:54 86 °F 66.2 °F 29.8 in WSW 6.8 mph 10.6 mph 53% 0 in 62.00 W/m2 unknown
18:59 86 °F 66.2 °F 29.8 in SW 6.2 mph 10.6 mph 53% 0 in 72.00 W/m2 unknown
19:04 86 °F 66.2 °F 29.8 in WSW 6.2 mph 8.1 mph 54% 0 in 98.00 W/m2 unknown
19:09 86 °F 66.2 °F 29.8 in WSW 6.2 mph 8.1 mph 55% 0 in 207.00 W/m2 unknown
19:14 86 °F 66.2 °F 29.8 in SW 5 mph 6.8 mph 55% 0 in 292.00 W/m2 unknown
19:19 86 °F 68 °F 29.8 in SW 5 mph 6.2 mph 54% 0 in 292.00 W/m2 unknown
19:24 86 °F 68 °F 29.8 in SW 5 mph 6.2 mph 55% 0 in 264.00 W/m2 unknown
19:29 86 °F 68 °F 29.8 in WSW 5 mph 6.2 mph 55% 0 in 220.00 W/m2 unknown
19:34 86 °F 68 °F 29.8 in WSW 3.7 mph 5 mph 55% 0 in 190.00 W/m2 unknown
19:39 86 °F 68 °F 29.8 in West 3.1 mph 5 mph 55% 0 in 153.00 W/m2 unknown
19:44 86 °F 68 °F 29.9 in North 6.8 mph 14.3 mph 56% 0 in 128.00 W/m2 unknown
19:49 86 °F 68 °F 29.9 in NNE 9.3 mph 14.3 mph 55% 0 in 107.00 W/m2 unknown
19:54 82.4 °F 64.4 °F 29.9 in North 9.9 mph 14.3 mph 59% 0 in 84.00 W/m2 unknown
19:59 80.6 °F 64.4 °F 29.9 in NNE 9.9 mph 14.9 mph 63% 0 in 74.00 W/m2 unknown
20:04 78.8 °F 64.4 °F 29.9 in North 10.6 mph 14.9 mph 67% 0 in 65.00 W/m2 unknown
20:09 77 °F 64.4 °F 29.9 in North 9.9 mph 14.9 mph 69% 0 in 49.00 W/m2 unknown
20:14 75.2 °F 64.4 °F 29.9 in NNE 8.1 mph 11.8 mph 70% 0 in 37.00 W/m2 unknown
20:19 75.2 °F 64.4 °F 29.9 in NNE 6.8 mph 9.3 mph 71% 0 in 28.00 W/m2 unknown
20:24 75.2 °F 64.4 °F 29.9 in NNE 6.8 mph 8.7 mph 71% 0 in 25.00 W/m2 unknown
20:29 73.4 °F 64.4 °F 29.9 in NNE 6.2 mph 8.1 mph 71% 0 in 21.00 W/m2 unknown
20:34 73.4 °F 64.4 °F 29.9 in NNE 6.2 mph 8.1 mph 72% 0 in 19.00 W/m2 unknown
20:39 73.4 °F 64.4 °F 29.9 in NE 6.2 mph 8.1 mph 72% 0 in 16.00 W/m2 unknown
20:44 73.4 °F 64.4 °F 29.9 in NNE 5 mph 6.8 mph 72% 0 in 14.00 W/m2 unknown
20:49 73.4 °F 64.4 °F 29.9 in NNE 5 mph 6.8 mph 72% 0 in 11.00 W/m2 unknown
20:54 73.4 °F 64.4 °F 29.9 in NNE 5 mph 6.8 mph 72% 0 in 7.00 W/m2 unknown
20:59 73.4 °F 64.4 °F 29.9 in NNE 5.6 mph 6.8 mph 72% 0 in 5.00 W/m2 unknown
21:04 73.4 °F 62.6 °F 29.9 in NNE 5.6 mph 6.8 mph 71% 0 in 0.00 W/m2 unknown
21:09 73.4 °F 62.6 °F 29.9 in North 5 mph 6.8 mph 71% 0 in 0.00 W/m2 unknown
21:14 73.4 °F 62.6 °F 29.9 in North 4.3 mph 6.2 mph 70% 0 in 0.00 W/m2 unknown
21:18 73.4 °F 62.6 °F 29.9 in NNE 3.7 mph 6.2 mph 70% 0 in 0.00 W/m2 unknown
21:24 73.4 °F 62.6 °F 29.9 in NNE 3.1 mph 5 mph 69% 0 in 0.00 W/m2 unknown
21:29 73.4 °F 62.6 °F 29.9 in NNE 2.5 mph 5 mph 69% 0 in 0.00 W/m2 unknown
21:34 73.4 °F 62.6 °F 29.9 in NNE 2.5 mph 3.7 mph 68% 0 in 0.00 W/m2 unknown
21:39 73.4 °F 62.6 °F 29.9 in NNE 2.5 mph 3.7 mph 68% 0 in 0.00 W/m2 unknown
21:44 73.4 °F 62.6 °F 29.9 in WNW 3.7 mph 8.1 mph 68% 0 in 0.00 W/m2 unknown
21:49 73.4 °F 62.6 °F 29.9 in West 5 mph 8.1 mph 70% 0 in 0.00 W/m2 unknown
21:54 73.4 °F 62.6 °F 29.9 in WSW 5 mph 8.1 mph 71% 0 in 0.00 W/m2 unknown
21:59 73.4 °F 62.6 °F 29.9 in West 5 mph 6.8 mph 72% 0 in 0.00 W/m2 unknown
22:04 71.6 °F 62.6 °F 29.9 in West 4.3 mph 6.2 mph 73% 0 in 0.00 W/m2 unknown
22:09 71.6 °F 62.6 °F 29.9 in West 5 mph 6.2 mph 73% 0 in 0.00 W/m2 unknown
22:14 71.6 °F 62.6 °F 29.9 in WSW 5 mph 6.2 mph 72% 0 in 0.00 W/m2 unknown
22:19 71.6 °F 62.6 °F 29.9 in WSW 5 mph 6.2 mph 73% 0 in 0.00 W/m2 unknown
22:24 71.6 °F 62.6 °F 29.9 in West 5 mph 5 mph 74% 0 in 0.00 W/m2 unknown
22:29 71.6 °F 62.6 °F 29.9 in WSW 3.7 mph 5 mph 75% 0 in 0.00 W/m2 unknown
22:34 69.8 °F 62.6 °F 29.9 in WSW 3.7 mph 6.2 mph 75% 0 in 0.00 W/m2 unknown
22:39 69.8 °F 62.6 °F 29.9 in WSW 3.7 mph 6.2 mph 75% 0 in 0.00 W/m2 unknown
22:44 69.8 °F 62.6 °F 29.9 in WSW 5 mph 6.2 mph 75% 0 in 0.00 W/m2 unknown
22:49 69.8 °F 62.6 °F 29.9 in West 5 mph 6.2 mph 75% 0 in 0.00 W/m2 unknown
22:54 69.8 °F 62.6 °F 29.9 in West 5 mph 6.2 mph 75% 0 in 0.00 W/m2 unknown
22:59 69.8 °F 60.8 °F 29.9 in West 5 mph 6.2 mph 74% 0 in 0.00 W/m2 unknown
23:04 69.8 °F 60.8 °F 29.9 in West 5 mph 6.2 mph 74% 0 in 0.00 W/m2 unknown
23:09 69.8 °F 62.6 °F 29.9 in West 3.7 mph 5 mph 75% 0 in 0.00 W/m2 unknown
23:14 69.8 °F 60.8 °F 29.9 in West 3.7 mph 5 mph 75% 0 in 0.00 W/m2 unknown
23:19 69.8 °F 60.8 °F 29.9 in West 3.1 mph 5 mph 76% 0 in 0.00 W/m2 unknown
23:24 69.8 °F 60.8 °F 29.9 in West 3.1 mph 3.7 mph 76% 0 in 0.00 W/m2 unknown
23:29 69.8 °F 60.8 °F 29.9 in West 3.1 mph 3.7 mph 76% 0 in 0.00 W/m2 unknown
23:34 69.8 °F 62.6 °F 29.9 in West 3.1 mph 3.7 mph 76% 0 in 0.00 W/m2 unknown
23:39 69.8 °F 62.6 °F 29.9 in West 3.1 mph 3.7 mph 76% 0 in 0.00 W/m2 unknown
23:44 69.8 °F 62.6 °F 29.9 in West 3.1 mph 3.7 mph 76% 0 in 0.00 W/m2 unknown
23:49 69.8 °F 60.8 °F 29.9 in West 3.1 mph 3.7 mph 76% 0 in 0.00 W/m2 unknown
23:53 69.8 °F 60.8 °F 29.9 in WNW 3.1 mph 5 mph 76% 0 in 0.00 W/m2 unknown
23:59 69.8 °F 60.8 °F 29.9 in WNW 3.1 mph 5 mph 76% 0 in 0.00 W/m2 unknown
Stazione Meteorologica MeteoMincio Rivalta s/M (MN)
Con i complimenti di Weather Underground - 4 mb



GLOSSARIO METEOROLOGICO
Umidità Assoluta
Quantità di vapore acqueo contenuta in 1 metro cubo di aria. Viene espressa in grammi per m³.
Share

Non seguire questo link o sarai bannato dal sito!